Weather WX

World > North America > United States > Missouri

Glensted, Missouri Regional Weather

Lat: 38.52N, Lon: 92.86W
Wx Zone: MOZ056
Warning FLW WEATHER ALERT - (More Info. Click Here) Warning
Feedback

Glensted, MO Regional Weather

Expires:201906261500;;107566
ASUS43 KEAX 261410
RWREAX

WEATHER ROUNDUP FOR EASTERN KANSAS AND NORTHWEST MISSOURI
NATIONAL WEATHER SERVICE KANSAS CITY/PLEASANT HILL MO
900 AM CDT WED JUN 26 2019


MOZ041-047>049-056>058-063>065-088>090-097-261500-
...EASTERN AND SOUTHERN MISSOURI...
  
CITY           SKY/WX    TMP DP  RH WIND       PRES   REMARKS
ST. LOUIS INTL PTSUNNY   81  71  71 SW7       30.11R                  
SPIRIT OF STL  MOSUNNY   79  72  79 SW7       30.09R                  
COLUMBIA       SUNNY     81  67  62 W6        30.10R                  
ROLLA          SUNNY     78  71  79 S5        30.12R                  
OSAGE BEACH    SUNNY     79  71  76 CALM      30.10R                  
SPRINGFIELD    SUNNY     74  63  68 SE9       30.06R                  
BRANSON        PTSUNNY   75  66  73 SE7       30.09F                  
JOPLIN         SUNNY     73  65  75 SW13      30.07R                  
WEST PLAINS    SUNNY     76  71  85 VRB3      30.14S                  

$$


SKY/WX - Weather  TMP - Temperature  DP - Dew Point  RH - Relative Humidity
WIND - Wind Direction/Speed PRES - Barometric Pressure VSB - Visibility
WCI - Wind Chill Index E13G22 Wind - East Wind 13 mph/Gusts of 22 mph